Location: Estes Par
(40.3770°N, 10.0000°W)
Time: 09:59:22
(UTC-07:00)

N. Korean satellite - Visible Passes

Search period start: 16 December 2017 00:00
Search period end: 26 December 2017 00:00
Orbit: 461 x 513 km, 97.2° (Epoch: 16 December)

Date Brightness Start Highest point End Pass type
(mag) Time Alt. Az. Time Alt. Az. Time Alt. Az.
16 Dec 7.7 11:59:57 10° S 12:03:31 46° W 12:07:09 10° NNW visible
16 Dec 9.9 23:28:53 10° ENE 23:31:00 15° E 23:33:06 10° SE visible
17 Dec 6.5 11:36:15 10° SSE 11:39:57 84° ENE 11:43:43 10° N visible
18 Dec 7.0 11:12:57 10° SE 11:16:26 40° ENE 11:19:59 10° N visible
18 Dec 10.0 12:48:29 10° WSW 12:50:08 13° W 12:51:48 10° WNW visible
19 Dec 7.4 00:13:57 10° NNE 00:17:35 57° E 00:21:06 10° S visible
19 Dec 7.9 10:50:09 10° ESE 10:53:01 21° ENE 10:55:55 10° NNE visible
19 Dec 9.1 12:23:21 10° SSW 12:26:24 24° W 12:29:29 10° NW visible
19 Dec 8.9 23:50:45 10° NE 23:53:56 27° E 23:57:02 10° SSE visible
20 Dec 7.7 11:59:08 10° S 12:02:44 47° W 12:06:23 10° NNW visible
20 Dec 9.9 23:28:09 10° ENE 23:30:11 14° E 23:32:10 10° SE visible
21 Dec 6.5 11:35:26 10° SSE 11:39:09 83° ENE 11:42:55 10° N visible
22 Dec 7.1 11:12:08 10° SE 11:15:38 40° ENE 11:19:10 10° N visible
22 Dec 10.0 12:47:36 10° WSW 12:49:19 13° W 12:51:03 10° WNW visible
23 Dec 7.4 00:13:09 10° NNE 00:16:44 56° E 00:20:13 10° S visible
23 Dec 7.9 10:49:20 10° ESE 10:52:12 21° ENE 10:55:05 10° NNE visible
23 Dec 9.1 12:22:29 10° SSW 12:25:34 24° W 12:28:41 10° NW visible
23 Dec 9.0 23:49:58 10° NE 23:53:03 27° E 23:56:07 10° SSE visible
24 Dec 7.7 11:58:17 10° S 12:01:54 48° W 12:05:33 10° NNW visible
24 Dec 9.9 23:27:23 10° ENE 23:29:19 14° E 23:31:12 10° SE visible
25 Dec 6.5 11:34:35 10° SSE 11:38:18 81° ENE 11:42:04 10° N visible
